Location: Newark
(56.9167°N, 48.7972°E)
Time: 03:15:31
(UTC+00:00)

ISS - Visible Passes

Search period start: 25 August 2019 00:00
Search period end: 04 September 2019 00:00
Orbit: 410 x 421 km, 51.6° (Epoch: 25 August)

Date Brightness Start Highest point End Pass type
(mag) Time Alt. Az. Time Alt. Az. Time Alt. Az.
01 Sep -1.3 00:29:41 10° S 00:31:28 14° SSE 00:33:16 10° ESE visible
01 Sep -1.1 23:42:32 10° SSE 23:42:54 10° SE 23:43:15 10° SE visible
03 Sep -2.0 00:28:04 13° SSW 00:30:06 21° SSE 00:32:43 10° ESE visible
03 Sep -1.8 23:41:08 17° SSE 23:41:26 17° SSE 23:43:41 10° ESE visible
